Monterey, CA

9:19 AM PDT on March 25, 2017 (GMT -0700)
Monterey Peninsula

Weather History for KMRY - April, 2012

Change the Weather History Date:

Thursday, April 26, 2012

  Actual Average Record
Temperature  
Mean Temperature 57 °F 55 °F  
Max Temperature 61 °F 62 °F 92 °F (2004)
Min Temperature 52 °F 48 °F 43 °F (2011)
Degree Days  
Heating Degree Days 8    
Month to date heating degree days 252  
Since 1 July heating degree days 2765  
Cooling Degree Days 0    
Month to date cooling degree days 0  
Year to date cooling degree days 0  
Growing Degree Days 7 (Base 50)    
Moisture  
Dew Point 50 °F    
Average Humidity 70    
Maximum Humidity 93    
Minimum Humidity 46    
Precipitation  
Precipitation 0.13 in - 0.13 in (2012)
Month to date precipitation 1.95  
Year to date precipitation 7.20  
Since 1 July precipitation 11.00  
Sea Level Pressure  
Sea Level Pressure 30.02 in    
Wind  
Wind Speed 7 mph (WSW)    
Max Wind Speed 16 mph    
Max Gust Speed 22 mph    
Visibility 8 miles    
Events Rain    
T = Trace of Precipitation, MM = Missing Value Source: NWS Daily Summary

Daily Weather History Graph

Daily Weather History Graph

Search for Another Location

Airport or City:

Trip Planner

Search our weather history database for the weather conditions in past years. The results will help you decide how hot, cold, wet, or windy it might be!

Date:

Astronomy

Apr. 26, 2012 Rise Set
Actual Time 6:18 AM PDT 7:51 PM PDT
Civil Twilight 5:51 AM PDT 8:19 PM PDT
Nautical Twilight 5:18 AM PDT 8:52 PM PDT
Astronomical Twilight 4:43 AM PDT 9:27 PM PDT
Moon 10:06 AM PDT (4/26) No Moon Set
Length of Visible Light 14h 27m
Length of Day
13h 32m
Waxing Crescent, 25% of the Moon is Illuminated
Apr 26
Waxing Crescent
Apr 29
First Quarter
May 5
Full
May 12
Last Quarter
May 20
New

Hourly Weather History & Observations

Time (PDT) Temp. Dew Point Humidity Pressure Visibility Wind Dir Wind Speed Gust Speed Precip Events Conditions
12:10 AM - - N/A% 29.83 in 10.0 mi Calm Calm - N/A   Scattered Clouds
12:54 AM 57.0 °F 54.0 °F 89% 29.86 in 10.0 mi Calm Calm - N/A   Clear
1:54 AM 57.0 °F 54.0 °F 89% 29.87 in 10.0 mi SE 3.5 mph - N/A   Mostly Cloudy
2:52 AM - - N/A% 29.86 in 10.0 mi Calm Calm - 0.01 in   Overcast
2:54 AM - - N/A% 29.86 in 10.0 mi West 3.5 mph - 0.01 in   Overcast
3:12 AM 57.2 °F 53.6 °F 88% 29.86 in 9.0 mi Calm Calm - N/A   Overcast
3:54 AM 57.0 °F 54.0 °F 89% 29.91 in 5.0 mi SSW 10.4 mph - 0.02 in Rain Light Rain
4:18 AM 57.2 °F 53.6 °F 88% 29.88 in 5.0 mi SSW 6.9 mph - 0.01 in Rain Light Rain
4:28 AM 55.4 °F 53.6 °F 94% 29.88 in 5.0 mi SSW 8.1 mph - 0.01 in Rain Light Rain
4:54 AM 55.9 °F 54.0 °F 93% 29.92 in 4.0 mi SSW 4.6 mph - 0.03 in Rain Light Rain
5:01 AM 55.4 °F 53.6 °F 94% 29.88 in 4.0 mi SW 3.5 mph - 0.00 in Rain Light Rain
5:16 AM 55.4 °F 53.6 °F 94% 29.88 in 5.0 mi SSW 4.6 mph - 0.01 in Rain Light Rain
5:27 AM 55.4 °F 53.6 °F 94% 29.88 in 7.0 mi SSW 4.6 mph - 0.01 in   Overcast
5:46 AM 55.4 °F 53.6 °F 94% 29.89 in 5.0 mi SW 4.6 mph - 0.01 in Rain Light Rain
5:54 AM 55.9 °F 54.0 °F 93% 29.93 in 5.0 mi SSW 5.8 mph - 0.01 in Rain Light Rain
6:32 AM 55.4 °F 53.6 °F 94% 29.91 in 2.5 mi WSW 11.5 mph 19.6 mph 0.04 in Rain Light Rain
6:47 AM 55.4 °F 53.6 °F 94% 29.91 in 4.0 mi SW 8.1 mph - 0.05 in Rain Light Rain
6:54 AM 55.9 °F 53.1 °F 90% 29.95 in 6.0 mi SW 5.8 mph - 0.05 in Rain Light Rain
7:16 AM 55.4 °F 53.6 °F 94% 29.92 in 10.0 mi SW 3.5 mph - 0.00 in   Overcast
7:23 AM 55.4 °F 53.6 °F 94% 29.93 in 10.0 mi SSW 4.6 mph - 0.00 in   Overcast
7:54 AM 55.9 °F 53.1 °F 90% 29.98 in 10.0 mi SW 4.6 mph - 0.00 in   Overcast
8:18 AM 57.2 °F 53.6 °F 88% 29.95 in 10.0 mi SW 8.1 mph - N/A   Overcast
8:35 AM 57.2 °F 53.6 °F 88% 29.96 in 10.0 mi SW 8.1 mph - N/A   Overcast
8:54 AM 57.0 °F 53.1 °F 87% 30.00 in 10.0 mi SW 10.4 mph - N/A   Overcast
9:54 AM 57.9 °F 53.1 °F 84% 30.02 in 10.0 mi SW 9.2 mph - N/A   Overcast
10:21 AM 55.4 °F 51.8 °F 88% 30.00 in 7.0 mi West 13.8 mph 21.9 mph 0.00 in Rain Light Rain
10:52 AM 55.4 °F 48.2 °F 77% 30.02 in 10.0 mi West 8.1 mph - 0.00 in   Overcast
10:54 AM 55.4 °F 48.2 °F 77% 30.03 in 10.0 mi West 6.9 mph - N/A   Overcast
11:31 AM 53.6 °F 50.0 °F 88% 30.05 in 5.0 mi Variable 4.6 mph - 0.00 in Rain Light Rain
11:39 AM 53.6 °F 51.8 °F 94% 30.05 in 5.0 mi West 6.9 mph - 0.01 in Rain Light Rain
11:54 AM 55.0 °F 52.0 °F 89% 30.06 in 5.0 mi WSW 4.6 mph - 0.01 in Rain Light Rain
12:17 PM 55.4 °F 51.8 °F 88% 30.06 in 10.0 mi SW 5.8 mph - 0.00 in   Overcast
12:26 PM 57.2 °F 50.0 °F 77% 30.06 in 10.0 mi WSW 4.6 mph - 0.00 in   Overcast
12:34 PM 57.2 °F 51.8 °F 82% 30.07 in 10.0 mi Variable 4.6 mph - 0.00 in   Overcast
12:42 PM 57.2 °F 48.2 °F 72% 30.07 in 10.0 mi WNW 5.8 mph - 0.00 in   Overcast
12:54 PM 57.0 °F 44.1 °F 62% 30.11 in 10.0 mi West 8.1 mph - 0.00 in   Overcast
1:54 PM 60.1 °F 45.0 °F 57% 30.14 in 10.0 mi West 11.5 mph - N/A   Overcast
2:54 PM 61.0 °F 42.1 °F 50% 30.12 in 10.0 mi West 10.4 mph 19.6 mph N/A   Scattered Clouds
3:54 PM 60.1 °F 39.9 °F 47% 30.17 in 10.0 mi West 11.5 mph - N/A   Scattered Clouds
4:54 PM 60.1 °F 39.9 °F 47% 30.18 in 10.0 mi West 9.2 mph 16.1 mph N/A   Clear
5:54 PM 59.0 °F 39.9 °F 49% 30.19 in 10.0 mi WSW 10.4 mph - N/A   Clear
6:54 PM 57.0 °F 42.1 °F 57% 30.20 in 10.0 mi West 8.1 mph - N/A   Clear
7:54 PM 54.0 °F 44.1 °F 69% 30.21 in 10.0 mi WSW 4.6 mph - N/A   Clear
8:54 PM 53.1 °F 44.1 °F 71% 30.23 in 10.0 mi Variable 5.8 mph - N/A   Partly Cloudy
9:45 PM 53.6 °F 44.6 °F 72% 30.21 in 10.0 mi Calm Calm - N/A   Mostly Cloudy
9:54 PM 54.0 °F 45.0 °F 72% 30.25 in 10.0 mi WSW 3.5 mph - N/A   Mostly Cloudy
10:12 PM 53.6 °F 44.6 °F 72% 30.21 in 10.0 mi Variable 6.9 mph - N/A   Mostly Cloudy
10:54 PM 53.1 °F 42.1 °F 66% 30.24 in 10.0 mi West 12.7 mph - N/A   Clear
11:54 PM 53.1 °F 42.1 °F 66% 30.26 in 10.0 mi West 5.8 mph - N/A   Clear